This is the latest recevied weather packets stored in our database for station/object WA7CUG. If no packets are shown the sender has not sent any weather packets the latest 10 day(s).
| Time | Temp. | Humidity | Pressure | Rain* | Wind** | Luminosity | Snow |
|---|---|---|---|---|---|---|---|
| 1778089663 | 22.78° C | 48% | 1012.6 hPa | 0 mm | - | 569 W/m² | - |
| 1778089360 | 22.22° C | 48% | 1012.5 hPa | 0 mm | - | 557 W/m² | - |
| 1778089058 | 22.22° C | 48% | 1012.8 hPa | 0 mm | - | 545 W/m² | - |
| 1778088754 | 22.22° C | 48% | 1012.6 hPa | 0 mm | - | 530 W/m² | - |
| 1778088450 | 21.67° C | 51% | 1012.6 hPa | 0 mm | - | 526 W/m² | - |
| 1778088147 | 21.11° C | 50% | 1012.8 hPa | 0 mm | - | 505 W/m² | - |
| 1778087840 | 21.67° C | 53% | 1012.8 hPa | 0 mm | - | 508 W/m² | - |
| 1778087537 | 21.67° C | 51% | 1012.9 hPa | 0 mm | - | 504 W/m² | - |
| 1778087234 | 21.67° C | 49% | 1012.9 hPa | 0 mm | - | 488 W/m² | - |
| 1778086931 | 21.67° C | 48% | 1013 hPa | 0 mm | - | 459 W/m² | - |
| 1778086629 | 21.11° C | 51% | 1013.2 hPa | 0 mm | - | 453 W/m² | - |
| 1778086325 | 21.11° C | 49% | 1013.1 hPa | 0 mm | - | 447 W/m² | - |
| 1778086023 | 20.56° C | 56% | 1013 hPa | 0 mm | - | 420 W/m² | - |
| 1778085720 | 20.56° C | 51% | 1013.3 hPa | 0 mm | - | 398 W/m² | - |
| 1778085416 | 21.11° C | 52% | 1013 hPa | 0 mm | - | 393 W/m² | - |
| 1778085111 | 21.11° C | 50% | 1013.1 hPa | 0 mm | - | 410 W/m² | - |
| 1778084807 | 20.56° C | 53% | 1013.1 hPa | 0 mm | - | 389 W/m² | - |
| 1778084505 | 20.56° C | 51% | 1013.3 hPa | 0 mm | - | 402 W/m² | - |
| 1778084202 | 20° C | 52% | 1013.4 hPa | 0 mm | - | 308 W/m² | - |
| 1778083899 | 21.11° C | 51% | 1013.3 hPa | 0 mm | - | 371 W/m² | - |
| 1778083597 | 21.11° C | 51% | 1013.2 hPa | 0 mm | - | 361 W/m² | - |
| 1778083294 | 20.56° C | 52% | 1013.2 hPa | 0 mm | - | 345 W/m² | - |
| 1778082992 | 20° C | 51% | 1013.1 hPa | 0 mm | - | 333 W/m² | - |
| 1778082688 | 18.89° C | 55% | 1013.5 hPa | 0 mm | - | 59 W/m² | - |
| 1778081551 | 18.33° C | 55% | 1013.6 hPa | 0 mm | - | 225 W/m² | - |
* Rain latest hour (hover to see other rain measurements)
** Current wind speed in m/s (hover to see current wind gust speed)